Aérodrome :
LOGIN :

S'inscrire | Disclaimer

   EN    FR    IT 

 










Légende :    VFR   VFR Marginal   IFR   IFR Intensif   IFR Très Intensif
Visi : 
Plafond : 
>= 8 km
>= 3000ft
5 à 8 km
1000 à 3000 ft
1500m à 5 km
500 à 1000 ft
800 à 1500m
200 à 500 ft
< 800m
< 200 ft
Symboles :   Orages  Brouillard  Fortes neiges  Fortes précipitations  Vent > 20 kt
SIGMETs :   Divers  Orages  Givrage  Turbulence  Onde Orograph.  Cendres Volcan.







- Altitude de l'aérodrome : 410 ft
- Code IATA : AVB


LIPA - Aviano AB Pordenone

DERNIER METAR :
  • 171155Z 11006KT 9999 FEW070 SCT110 29/18 Q1016

METARs EXPIRÉS :
  • 171055Z 12005KT 9999 FEW070 29/17 Q1016
  • 170955Z 23002KT 9999 FEW050 28/17 Q1016

TAF TAF LIPA
Valide du 17 à 12h jusqu'au 17 à 21h UTC


171100Z 1712/1721 05007KT 9999 SCT070
PROB30
TEMPO 1712/1715 5000 SHRA FEW020CB SCT050
Pas de NOTAMs connus pour ce terrain.



MET'MAP, la Météo Aéronautique d'un coup d'oeil ! - Copyright ORBIFLY Décembre 2007 - Disclaimer

ORBIFLY MET'MAP TEAM :

Programmation & Développement : Alexandra Zaïnal
Conception & Développement : Baudouin d'Aumeries
Co-Programmation & Développement : Marc-Olivier Méhu
Soutien technique & logistique : Manuel Goepfert

Contact : metmap@orbifly.com




SOURCES & CREDITS :

   NOAA